Location: McFarlands Corners
(41.4117°N, 81.3382°W)
Time: 06:39:23
(UTC+00:00)

Transit 4A - Pass Details

Date: 22 February 2026
Orbit: 864 x 977 km, 66.8° (Epoch: 9 March)

Event Time Altitude Azimuth Distance (km) Brightness Sun altitude
Rises 09:39:15 0° 252° (WSW) 3,466 - -29.0°
Reaches altitude 10° 09:42:17 10° 267° (W) 2,547 - -28.4°
Maximum altitude 09:46:47 22° 317° (NW) 1,863 - -27.6°
Exits shadow 09:48:24 20° 340° (NNW) 1,978 9.5 -27.3°
Drops below altitude 10° 09:51:23 10° 7° (N) 2,612 10.4 -26.7°
Sets 09:54:34 0° 23° (NNE) 3,580 11.4 -26.1°
